Powrót do katalogu

STARLINK-35211

AktywnyŁącznośćVLEO
NORAD 65757·PAYLOAD·🇺🇸 United States

Wystrzelony Sep 25, 2025 z Cape Canaveral Space Force Station

Loading…

Następne Przeloty (najbliższe 24 godziny)

TLE

ŚwieżeSource: CelesTrak SupGP

Epoka: Sep 14, 2026, 21:15 UTC

1 65757C 25216Z   26257.88590278 -.00031970  00000+0 -94429-3 0  2574
2 65757  53.1584 171.6890 0001294  88.3850 297.1148 15.34415232    11

Śledź STARLINK-35211 w czasie rzeczywistym z AllMySat

Download on the App Store